Volver al catálogo

DELTA 1 DEB

ActivoSSO
NORAD 40763·DEBRIS·🇺🇸 United States

Lanzado Jul 29, 1976 desde Vandenberg Space Force Base

Loading…

Próximos Pases (próximas 24 horas)

TLE

ActualizadoSource: Space-Track

Época: Sep 14, 2026, 04:21 UTC

1 40763U 76077GG  26257.18189290  .00000241  00000-0  16582-2 0  9998
2 40763 101.5765 235.0239 0034576  23.4154 336.8488 12.59308650103323

Sigue DELTA 1 DEB en tiempo real con AllMySat

Download on the App Store